Regional Weather Roundup
Issued by NWS Newport/Morehead, NC

Current Version | Previous Version | Graphics & Text | Print | Product List | Glossary Off
Versions: 1 2 3 4 5 6 7 8 9 10 11 12 13 14 15 16 17 18 19 20 21 22 23 24 25 26 27 28 29 30 31 32 33 34 35 36 37 38 39 40 41 42 43 44 45 46 47 48 49 50

000
ASUS42 KMHX 112213
RWRMHX
WEATHER ROUNDUP FOR EASTERN NORTH CAROLINA
NATIONAL WEATHER SERVICE NEWPORT/MOREHEAD CITY NC
500 PM EST THU FEB 11 2016

NOTE: "FAIR" INDICATES FEW OR NO CLOUDS BELOW 12,000 FEET
WITH NO SIGNIFICANT WEATHER AND/OR OBSTRUCTIONS TO VISIBILITY

NCZ015>017-031-032-045>047-102-103-112300-
NORTH COAST

CITY           SKY/WX    TMP DP  RH WIND       PRES   REMARKS
EDENTON        CLEAR     38   7  27 NW9G17    30.18R
ELIZABETH CITY CLEAR     35   8  32 W10       30.18R
KITTY HAWK     CLEAR     36   8  32 W7        30.17R
MANTEO         CLEAR     35  10  34 NW7G16    30.18R

$$

NCZ045>047-081-094-103-104-112300-
CENTRAL COAST

CITY           SKY/WX    TMP DP  RH WIND       PRES   REMARKS
FRISCO         CLEAR     38  13  35 W8G17     30.18R
SWANQUARTER      N/A     37 N/A N/A NW13      30.15S

$$

NCZ095-097-098-100-101-112300-
SOUTHERN COAST

CITY           SKY/WX    TMP DP  RH WIND       PRES   REMARKS
BEAUFORT       CLEAR     41  13  31 NW13      30.19R
CEDAR ISLAND     N/A     39 N/A N/A W5G13     30.24R
JACKSONVILLE   CLEAR     43  13  29 W13       30.18R
PINEY ISLAND   CLEAR    N/A N/A N/A W9        30.18R
WILMINGTON     CLEAR     47  17  30 NW6       30.18R


$$

NCZ011>013-027>030-043-044-078>080-089-090>093-098-112300-
COASTAL PLAIN

CITY           SKY/WX    TMP DP  RH WIND       PRES   REMARKS
AHOSKIE        CLEAR     35   4  26 NW6       30.18R
CLINTON        CLEAR     44  17  33 N5        30.18R
ELIZABETHTOWN  CLEAR     45  17  31 NW7       30.17R
GOLDSBORO      CLEAR     41   9  26 NW8       30.16R
GREENVILLE     CLEAR     39   5  24 NW6       30.19R
HAVELOCK       CLEAR     41  11  29 NW13      30.19R
KENANSVILLE    CLEAR     42  13  30 CALM      30.18S
KINSTON        CLEAR     41   9  26 W6        30.19R
NEW BERN       CLEAR     41  10  28 W9G17     30.20R
RICHLANDS      CLEAR     43  12  28 W6        30.19R
ROCKY MOUNT    CLEAR     39   5  24 W12       30.18R
WASHINGTON     CLEAR     38   7  27 NW8       30.19R
WHITEVILLE     CLEAR     46  18  33 CALM      30.18R

$$

AMZ130-135-150-152-154-156-158-170-250-252-270-ANZ085-086-088-633-658-670-112300-
MARINE OBSERVATIONS

STATION/POSITION TIME  TEMP    WIND        PRES    WAVE   SWELL
                       AIR SEA DIR/SP/G            HT/PER HT/PER
                 (UTC) (F)     (DEG/KT/KT) (MB)    (FT/S) (FT/S)
CHESAPEAKE LIGHT 2200   32     300/ 17/ 20 1022.2
64 E VA BEACH    2150   33 48  300/ 19/ 25 1021.0    6/ 6   2/ 9
DUCK             2100   35     290/ 12/ 20 1020.4
2 E DUCK         2111      44                N/A     2/12
OREGON INLET     2100   35 41  290/ 10/ 17 1021.3
13E OREGON INLT  2200      47                N/A     4/ 5   2/12
HATTERAS CG      2100   37 45  280/ 17/ 19 1021.3
DIAMOND BUOY     2150   39 57  290/ 17/ 21 1022.2    5/ 4   2/ 8
CAPE LOOKOUT     NOT AVBL
BEAUFORT LAB     2100   42 44  310/  7/ 10 1020.6
30 SE NEW RVR IN 2108   44 59              1021.9
30 SE NEW RVR IN 2125      59                N/A     4/ 8   2/11
27 SE WRIGHTSVLE 2108   44 61  280/  8/ 14 1020.0
5 SE WRIGHTSVLE  2108   45 50  310/  8/ 12 1022.0
225 S CAPE HAT   2150   54 68  300/ 21/ 25   N/A    10/ 9   5/ 9
41 SE CHARLESTON 2150   49 63  250/  4/  6 1022.5    3/ 6   3/ 6

$$



USA.gov is the U.S. government's official web portal to all federal, state and local government web resources and services.